Miscellaneous Local Product
Issued by NWS Hastings, NE

Home | Current Version | Previous Version | Graphics & Text | Print | Product List | Glossary On
Versions: 1 2 3 4 5 6 7 8 9 10 11 12 13 14 15 16 17 18 19 20 21 22 23 24 25 26 27 28 29 30 31 32 33 34 35 36 37 38 39 40 41 42 43 44 45 46 47 48 49 50
000
AXUS43 KGID 281202
MISGRI

GID CWA HOURLY WEATHER ROUNDUP
NATIONAL WEATHER SERVICE HASTINGS NE
600 AM CST WED JAN 28 2015

NOTE: "FAIR" INDICATES FEW OR NO CLOUDS BELOW 12,000 FEET WITH NO
SIGNIFICANT WEATHER AND/OR OBSTRUCTIONS TO VISIBILITY.

...SOUTH CENTRAL NEBRASKA...

CITY           SKY/WX    TMP DP  RH WIND       PRES   REMARKS
GRAND ISLAND   CLEAR     27  24  89 NE3       29.82F
HASTINGS       CLEAR     25  21  85 N6        29.81S WCI  18
KEARNEY        CLEAR     30  27  86 CALM      29.81F
ORD            CLEAR     24  22  91 CALM      29.80F
YORK           CLEAR     28  27  93 E5        29.83F WCI  23
AURORA         CLEAR     28  26  94 E3        29.82S
LEXINGTON      CLEAR     33  29  85 W9        29.82S WCI  25
HOLDREGE       CLEAR     31  27  85 NW8       29.82S WCI  23
HEBRON         PTCLDY    35  30  82 CALM      29.83S

...NEBRASKA PANHANDLE...

CITY           SKY/WX    TMP DP  RH WIND       PRES   REMARKS
CHADRON        PTCLDY    46  32  58 W15       29.86F
ALLIANCE       MOCLDY    44  33  65 W22       29.87S
SCOTTSBLUFF      N/A    N/A N/A N/A MISG      29.94R
SIDNEY         MOCLDY    44  31  60 W14       29.94S

...WESTERN AND NORTH CENTRAL NEBRASKA...

CITY           SKY/WX    TMP DP  RH WIND       PRES   REMARKS
VALENTINE      MOCLDY    37  29  72 SW14      29.76F WCI  28
AINSWORTH      MOCLDY    44  30  58 W12       29.77F
ONEILL         PTCLDY    33  31  93 S6        29.78F WCI  28
BROKEN BOW     CLEAR     49  30  48 W3        29.80F
IMPERIAL       PTCLDY    42  29  59 NW10      29.89R
NORTH PLATTE   PTCLDY    31  27  85 NW10      29.85S WCI  22
MCCOOK         CLEAR     32  27  81 W10       29.85S WCI  24

...EASTERN NEBRASKA...

CITY           SKY/WX    TMP DP  RH WIND       PRES   REMARKS
NORFOLK        CLEAR     30  27  88 SE6       29.83S WCI  24
SO SIOUX CITY  PTCLDY    32  29  88 SE6       29.89S WCI  26
TEKAMAH        CLEAR     32  29  88 SE9       29.89F WCI  24
COLUMBUS       CLEAR     30  21  69 E3        29.85F
ALBION         CLEAR     28  26  90 SE3       29.82F
OMAHA EPPLEY   PTCLDY    34  29  82 SE12      29.91S WCI  25
OFFUTT AFB     CLEAR     34  29  83 E12       29.90F WCI  25
MILLARD        CLEAR     35  30  82 SE7       29.89F WCI  29
LINCOLN        CLEAR     33  28  81 E5        29.87F WCI  29
NEBRASKA CITY  CLEAR     35  28  74 SE10      29.89S WCI  27
BEATRICE       CLEAR     33  28  83 E3        29.85S
FALLS CITY     CLEAR     35  28  75 SE9       29.90F WCI  28

...NORTHERN KANSAS...

CITY           SKY/WX    TMP DP  RH WIND       PRES   REMARKS
GOODLAND       PTCLDY    41  29  62 NW14      29.91R
HILL CITY      CLEAR     35  28  75 W6        29.82S WCI  30
NORTON         SUNNY     34  27  75 NW8       29.80S WCI  27
PHILLIPSBURG   CLEAR     30  27  86 NW3       29.81F
SMITH CENTER   CLEAR     34  28  80 CALM      29.82S
BELOIT         CLEAR     34  30  86 SE6       29.82F WCI  29
HAYS           CLEAR     41  28  60 SW8       29.83S
RUSSELL        CLEAR     41  33  73 S13       29.80F
CONCORDIA      PTCLDY    39  32  76 S3        29.83F
SALINA         CLEAR     40  31  70 S7        29.86S
TOPEKA         CLEAR     35  29  78 E5        29.93S WCI  31



USA.gov is the U.S. government's official web portal to all federal, state and local government web resources and services.